This is the latest recevied weather packets stored in our database for station/object AD8BV. If no packets are shown the sender has not sent any weather packets the latest 10 day(s).
| Time | Temp. | Humidity | Pressure | Rain* | Wind** | Luminosity | Snow |
|---|---|---|---|---|---|---|---|
| 1778116130 | 8.89° C | 57% | 1014.8 hPa | 0 mm | - | 0 W/m² | - |
| 1778115826 | 8.89° C | 56% | 1014.7 hPa | 0 mm | - | 0 W/m² | - |
| 1778115523 | 8.89° C | 55% | 1014.5 hPa | 0 mm | - | 0 W/m² | - |
| 1778115220 | 9.44° C | 55% | 1014.5 hPa | 0 mm | - | 0 W/m² | - |
| 1778114917 | 9.44° C | 54% | 1014.5 hPa | 0 mm | - | 0 W/m² | - |
| 1778114614 | 9.44° C | 53% | 1014.3 hPa | 0 mm | - | 0 W/m² | - |
| 1778114311 | 9.44° C | 53% | 1014.5 hPa | 0 mm | - | 0 W/m² | - |
| 1778114006 | 10° C | 51% | 1014.6 hPa | 0 mm | - | 0 W/m² | - |
| 1778113701 | 10° C | 54% | 1014.5 hPa | 0 mm | - | 1 W/m² | - |
| 1778113398 | 10° C | 50% | 1014.4 hPa | 0 mm | - | 3 W/m² | - |
| 1778113095 | 10° C | 52% | 1014.4 hPa | 0 mm | - | 6 W/m² | - |
| 1778112792 | 10° C | 53% | 1014.3 hPa | 0 mm | - | 11 W/m² | - |
| 1778112488 | 10.56° C | 52% | 1014.4 hPa | 0 mm | - | 19 W/m² | - |
| 1778112179 | 10.56° C | 47% | 1014.3 hPa | 0 mm | - | 22 W/m² | - |
| 1778111875 | 10.56° C | 49% | 1014.2 hPa | 0 mm | - | 26 W/m² | - |
| 1778111571 | 10.56° C | 47% | 1014.3 hPa | 0 mm | - | 26 W/m² | - |
| 1778111268 | 10.56° C | 48% | 1014.2 hPa | 0 mm | - | 31 W/m² | - |
| 1778110965 | 10.56° C | 47% | 1014.4 hPa | 0 mm | - | 35 W/m² | - |
| 1778110663 | 11.11° C | 47% | 1014.3 hPa | 0 mm | - | 35 W/m² | - |
| 1778110359 | 11.11° C | 47% | 1014.4 hPa | 0 mm | - | 37 W/m² | - |
| 1778110056 | 11.11° C | 47% | 1014.3 hPa | 0 mm | - | 34 W/m² | - |
| 1778109750 | 11.11° C | 47% | 1014.3 hPa | 0 mm | - | 36 W/m² | - |
| 1778109448 | 11.11° C | 50% | 1014.2 hPa | 0 mm | - | 32 W/m² | - |
| 1778109146 | 11.11° C | 46% | 1014.3 hPa | 0 mm | - | 31 W/m² | - |
| 1778108843 | 11.11° C | 45% | 1014.1 hPa | 0 mm | - | 42 W/m² | - |
* Rain latest hour (hover to see other rain measurements)
** Current wind speed in m/s (hover to see current wind gust speed)